sat.trackr.live / text

‹ back to catalog

STARLINK-35228

NORAD 65517 · 2025-198AB

PAYLOAD ACTIVE UNKNOWN

§ Identity

Operator
Country
US
Launch date
2025-09-05
Launch site
AFETR
Launch vehicle
Mass (kg)
RCS (m²)

Purposes: comms

External: N2YO · Heavens-Above · Gunter

§ Orbital elements

Epoch: 2026-09-20T21:46:02.752320Z

Period
93.85 min
Inclination
53.1583°
Eccentricity
0.0000723
Mean motion
15.34413271 rev/d
Perigee alt
462.2 km
Apogee alt
463.2 km
Semi-major
6,840.8 km
B*
6.1769e-4
RAAN
79.6240°
Arg perigee
96.0611°
Mean anomaly
264.0474°
Rev number
5,857

§ Raw data

STARLINK-352281 65517U 25198AB  26263.90697630  .00020559  00000+0  61769-3 0  99902 65517  53.1583  79.6240 0000723  96.0611 264.0474 15.34413271 58577

JSON: /api/v1/satellites/65517 · /tle

For live sub-satellite position, see the globe view (requires WebGL).

§ Visibility from observer

Set your observer location to see the next 7 days of passes ≥ 10°. The values pass through the URL so the page stays shareable.

No JS? Fill the form by hand. The geolocation button needs JavaScript.